TimeMST,TemperatureF,Dew PointF,Humidity,Sea Level PressureIn,VisibilityMPH,Wind Direction,Wind SpeedMPH,Gust SpeedMPH,PrecipitationIn,Events,Conditions,WindDirDegrees,DateUTC
12:53 AM,16.0,8.1,71,30.20,10.0,West,16.1,-,N/A,,Clear,270,2013-01-02 07:53:00
1:53 AM,18.0,10.0,71,30.22,10.0,WNW,11.5,-,N/A,,Clear,290,2013-01-02 08:53:00
2:53 AM,21.0,12.0,68,30.22,10.0,WNW,16.1,-,N/A,,Overcast,300,2013-01-02 09:53:00
3:53 AM,23.0,18.0,81,30.21,10.0,WNW,16.1,-,N/A,,Overcast,300,2013-01-02 10:53:00
4:53 AM,21.9,17.1,82,30.22,10.0,NW,16.1,-,N/A,,Partly Cloudy,310,2013-01-02 11:53:00
5:53 AM,25.0,18.0,75,30.25,10.0,NW,23.0,29.9,N/A,,Overcast,320,2013-01-02 12:53:00
6:53 AM,24.1,18.0,77,30.28,10.0,NW,21.9,-,0.00,,Overcast,320,2013-01-02 13:53:00
7:29 AM,24.8,19.4,80,30.13,10.0,NW,21.9,-,N/A,,Overcast,320,2013-01-02 14:29:00
7:40 AM,24.8,19.4,80,30.14,2.5,NW,24.2,-,0.00,Snow,Light Snow,320,2013-01-02 14:40:00
7:53 AM,24.1,21.0,88,30.30,1.8,NW,21.9,-,0.00,Snow,Light Snow,320,2013-01-02 14:53:00
7:58 AM,24.8,21.2,86,30.15,3.0,NNW,21.9,-,0.00,Snow,Light Snow,330,2013-01-02 14:58:00
8:17 AM,24.8,21.2,86,30.15,4.0,NNW,24.2,-,0.00,Snow,Light Snow,330,2013-01-02 15:17:00
8:24 AM,24.8,21.2,86,30.15,4.0,NW,20.7,-,0.00,Snow,Light Snow,320,2013-01-02 15:24:00
8:53 AM,25.0,21.0,85,30.31,10.0,NW,18.4,-,0.00,,Scattered Clouds,320,2013-01-02 15:53:00
9:53 AM,27.0,19.0,72,30.32,10.0,NNW,20.7,28.8,N/A,,Clear,330,2013-01-02 16:53:00
10:53 AM,28.9,21.0,72,30.29,10.0,NNW,19.6,-,N/A,,Scattered Clouds,330,2013-01-02 17:53:00
11:53 AM,30.9,19.0,61,30.25,10.0,NNW,20.7,29.9,N/A,,Clear,330,2013-01-02 18:53:00
12:53 PM,30.9,17.1,57,30.23,10.0,NNW,21.9,29.9,N/A,,Partly Cloudy,330,2013-01-02 19:53:00
1:53 PM,32.0,17.1,54,30.23,10.0,NNW,19.6,29.9,N/A,,Clear,330,2013-01-02 20:53:00
2:53 PM,30.9,17.1,57,30.24,10.0,NNW,20.7,25.3,N/A,,Clear,330,2013-01-02 21:53:00
4:53 PM,23.0,14.0,68,30.28,10.0,North,4.6,-,N/A,,Clear,350,2013-01-02 23:53:00
5:53 PM,14.0,9.0,80,30.34,10.0,West,5.8,-,N/A,,Clear,270,2013-01-03 00:53:00
6:53 PM,12.9,8.1,81,30.36,10.0,West,5.8,-,N/A,,Partly Cloudy,280,2013-01-03 01:53:00
7:53 PM,12.9,8.1,81,30.35,10.0,West,8.1,-,N/A,,Mostly Cloudy,260,2013-01-03 02:53:00
8:53 PM,14.0,9.0,80,30.36,10.0,West,8.1,-,N/A,,Overcast,270,2013-01-03 03:53:00
9:53 PM,12.0,6.1,77,30.36,10.0,West,9.2,-,N/A,,Clear,270,2013-01-03 04:53:00
10:53 PM,14.0,7.0,74,30.39,10.0,NW,10.4,-,N/A,,Clear,310,2013-01-03 05:53:00
11:53 PM,10.9,6.1,81,30.40,10.0,WNW,8.1,-,N/A,,Clear,300,2013-01-03 06:53:00